Flag for Russia Weather past 2 weeks in Krasnodar, Russia

Now
77 °F

Clear.


Feels Like: 78 °F
Forecast: 74 / 96 °F
Wind: 15 mph from East

Location: Krasnodar Airport

Current Time: Aug 2, 2014 at 3:34:53 AM

Latest Report: Aug 2, 2014 at 2:30 AM


Visibility: 10 mi

Pressure: 29.74 "Hg

Humidity: 42%

Dew point: 52 °F

Location of KrasnodarLocation

Historic Weather in Krasnodar — Graph

°F

Krasnodar temperature yesterday

Maximum temperature yesterday: 93 °F (at 5:30 PM)
Minimum temperature yesterday: 70 °F (at 4:30 AM)
Average temperature yesterday: 80 °F

Past Weeks' High & Low Weather Summary

 TemperatureHumidityPressure
High95 °F (Jul 24, 6:00 PM)100% (Jul 20, 3:00 AM)29.98 "Hg (Jul 20, 3:00 AM)
Low64 °F (Jul 23, 6:30 AM)25% (Jul 29, 2:00 PM)29.62 "Hg (Jul 25, 3:30 AM)
Average78 °F60%29.79 "Hg
* Reported Jul 18 2:00 AM — Aug 2 2:30 AM, Krasnodar, Weather by CustomWeather, © 2014

Note: Actual official high and low records may vary slightly from our data, if they occured in-between our weather recording intervals... More about our weather records

Advertising

Krasnodar weather history for previous 24 hours

 ConditionsComfort  
Time TempWeatherWind HumidityBarometerVisibility
2:30 AM
Aug 2
77 °FClear.15 mph42%29.74 "Hg10 mi
2:00 AM77 °FClear.13 mph44%29.74 "Hg10 mi
1:30 AM77 °FClear.10 mph47%29.74 "Hg10 mi
1:00 AM79 °FClear.10 mph45%29.74 "Hg10 mi
12:30 AM77 °FClear.8 mph47%29.74 "Hg10 mi
12:00 AM77 °FClear.6 mph51%29.74 "Hg10 mi
11:30 PM
Aug 1
75 °FClear.6 mph61%29.74 "Hg10 mi
11:00 PM77 °FClear.6 mph54%29.74 "Hg10 mi
10:30 PM79 °FClear.6 mph54%29.74 "Hg10 mi
10:00 PM82 °FClear.8 mph48%29.74 "Hg10 mi
9:30 PM81 °FSunny.6 mph58%29.74 "Hg10 mi
9:00 PM82 °FSunny.6 mph55%29.74 "Hg10 mi
8:30 PM86 °FSunny.10 mph46%29.74 "Hg10 mi
8:00 PM88 °FSunny.10 mph43%29.74 "Hg10 mi
7:30 PM90 °FSunny.13 mph41%29.74 "Hg10 mi
7:00 PM91 °FSunny.15 mph38%29.74 "Hg10 mi
6:30 PM91 °FSunny.13 mph38%29.74 "Hg10 mi
6:00 PM91 °FSunny.13 mph38%29.74 "Hg10 mi
5:30 PM93 °FSunny.15 mph36%29.74 "Hg10 mi
5:00 PM91 °FSunny.15 mph36%29.74 "Hg10 mi
4:30 PM91 °FSunny.17 mph38%29.74 "Hg10 mi
4:00 PM91 °FSunny.17 mph36%29.77 "Hg10 mi
3:30 PM91 °FSunny.15 mph38%29.77 "Hg10 mi
3:00 PM90 °FSunny.15 mph38%29.77 "Hg10 mi
2:30 PM88 °FSunny.17 mph43%29.77 "Hg10 mi
2:00 PM88 °FSunny.17 mph46%29.77 "Hg10 mi
1:30 PM86 °FSunny.17 mph49%29.80 "Hg10 mi
1:00 PM86 °FSunny.15 mph49%29.80 "Hg10 mi
12:30 PM86 °FSunny.10 mph49%29.80 "Hg10 mi
12:00 PM82 °FSunny.10 mph55%29.80 "Hg10 mi
11:30 AM82 °FSunny.10 mph51%29.80 "Hg10 mi
11:00 AM81 °FSunny.10 mph51%29.80 "Hg10 mi
10:30 AM79 °FSunny.10 mph54%29.80 "Hg10 mi
10:00 AM77 °FSunny.10 mph54%29.80 "Hg10 mi
9:30 AM75 °FSunny.10 mph54%29.80 "Hg10 mi
9:00 AM73 °FSunny.10 mph53%29.80 "Hg10 mi
8:30 AM73 °FSunny.10 mph53%29.80 "Hg10 mi
7:30 AM72 °FSunny.8 mph57%29.80 "Hg10 mi
7:00 AM72 °FClear.6 mph57%29.80 "Hg10 mi
6:30 AM70 °FClear.8 mph57%29.80 "Hg10 mi
6:00 AM72 °FClear.10 mph53%29.80 "Hg10 mi
5:30 AM70 °FClear.10 mph60%29.77 "Hg10 mi
5:00 AM70 °FClear.10 mph60%29.77 "Hg10 mi
4:30 AM70 °FClear.8 mph60%29.77 "Hg10 mi
4:00 AM72 °FClear.10 mph57%29.77 "Hg10 mi
3:30 AM72 °FClear.8 mph57%29.77 "Hg10 mi
3:00 AM73 °FClear.10 mph53%29.77 "Hg10 mi
Weather by CustomWeather, © 2014

See weather overviewHow to use our weather pages